User: anonymous   Login
Location: Hoyos del Collado
(40.3594°N, 5.2003°W)
Time: 18:32:06
(UTC+00:00)
Language:

CSL-04 Rocket - Orbit

View from above orbital plane
View from above orbital plane
View from above satellite
View from above satellite

Ground track
Ground track

The orbit data is extracted from the following two-line orbital elements,

1 25732U 99025C   24172.15942726  .00000094  00000-0  66800-4 0  9993
2 25732  98.7509 217.2405 0036968 349.0375  80.0083 14.17974130299368
Epoch (UTC): 20 June 2024 03:49:34
Eccentricity: 0.0036968
inclination: 98.7509°
perigee height: 805 km
apogee height: 859 km
right ascension of ascending node: 217.2405°
argument of perigee: 349.0375°
revolutions per day: 14.17974130
mean anomaly at epoch: 80.0083°
orbit number at epoch: 29936

The dashed part of the orbit path shows where the satellite is in the earth's shadow,  

DLR